Hourly Data Report for March 04, 2018

MIRAMICHI RCS
NEW BRUNSWICK

47°00'34.000" N
65°27'54.000" W
33.00 m
8100989
71744
ACQ

Download Data

Hourly Data (March 2018)
Hourly Data Report for March 4, 2018
TIME
LST
Temp Definition
°C
Dew Point Definition
°C
Rel Hum Definition
%
Precip. Amount Definition
mm

Wind Dir Definition
10's deg

Wind Spd Definition
km/h
Visibility Definition
km
Stn Press Definition
kPa
Hmdx Definition


Wind Chill Definition


Weather Definition


00:00 0.0 -3.1 80 0.0 4 19   101.83   -5 LegendNANA
01:00 -0.5 -3.3 82 0.0 4 17   101.82   -5 LegendNANA
02:00 -0.5 -3.3 81 0.0 4 23   101.80   -6 LegendNANA
03:00 -0.8 -3.4 83 0.0 5 25   101.78   -7 LegendNANA
04:00 -1.1 -3.5 84 0.0 5 28   101.78   -8 LegendNANA
05:00 -1.2 -3.4 85 0.0 4 26   101.78   -8 LegendNANA
06:00 -1.2 -3.3 86 0.0 4 21   101.77   -7 LegendNANA
07:00 -1.5 -2.9 90 0.0 4 21   101.79   -7 LegendNANA
08:00 -1.5 -2.9 90 0.0 4 18   101.81   -7 LegendNANA
09:00 -1.3 -2.8 89 0.0 5 24   101.80   -7 LegendNANA
10:00 -1.1 -2.7 89 0.0 5 22   101.79   -7 LegendNANA
11:00 -0.4 -2.5 86 0.0 5 24   101.76   -6 LegendNANA
12:00 0.1 -2.3 84 0.0 5 24   101.74     LegendNANA
13:00 0.4 -2.4 81 0.0 6 27   101.69     LegendNANA
14:00 0.0 -2.4 84 0.0 6 38   101.68   -7 LegendNANA
15:00 -0.1 -2.3 85 0.0 5 31   101.69   -7 LegendNANA
16:00 -0.2 -2.1 87 0.0 6 28   101.68   -7 LegendNANA
17:00 -0.3 -2.5 85 0.0 5 28   101.70   -7 LegendNANA
18:00 -0.3 -2.7 84 0.0 5 20   101.74   -6 LegendNANA
19:00 -0.5 -2.8 85 0.0 4 18   101.77   -6 LegendNANA
20:00 -0.6 -2.8 85 0.0 4 16   101.78   -5 LegendNANA
21:00 -0.7 -2.8 86 0.0 3 17   101.78   -6 LegendNANA
22:00 -0.7 -2.6 87 0.0 4 17   101.79   -6 LegendNANA
23:00 -0.7 -2.7 86 0.0 4 16   101.80   -5 LegendNANA

Notes on Data Quality.

Legend

  • E = Estimated
  • M = Missing
  • NA = Not Available*
  • [empty] = Indicates an unobserved value
Date modified: